Weather History for KDYT - October, 2013

Change the Weather History Date:

Tuesday, October 22, 2013

  Actual Average Record
Temperature  
Mean Temperature 36 °F -  
Max Temperature 39 °F 53 °F 75 °F (1967)
Min Temperature 33 °F 35 °F 22 °F (1965)
Degree Days  
Heating Degree Days 29    
Moisture  
Dew Point 28 °F    
Average Humidity 71    
Maximum Humidity 81    
Minimum Humidity 56    
Precipitation  
Precipitation 0.00 in - - ()
Sea Level Pressure  
Sea Level Pressure 29.97 in    
Wind  
Wind Speed 10 mph (WNW)    
Max Wind Speed 16 mph    
Max Gust Speed 20 mph    
Visibility 10 miles    
Events      
Averages and records for this station are not official NWS values.
T = Trace of Precipitation, MM = Missing Value Source: NWS Daily Summary

Daily Weather History Graph

Daily Weather History Graph

Search for Another Location

Airport or City:

Trip Planner

Search our weather history database for the weather conditions in past years. The results will help you decide how hot, cold, wet, or windy it might be!

Date:

Astronomy

Oct. 22, 2013 Rise Set
Actual Time 7:36 AM CDT 6:08 PM CDT
Civil Twilight 7:05 AM CDT 6:39 PM CDT
Nautical Twilight 6:29 AM CDT 7:14 PM CDT
Astronomical Twilight 5:54 AM CDT 7:49 PM CDT
Moon 8:39 PM CDT (10/22) 11:14 AM CDT (10/22)
Length of Visible Light 11h 34m
Length of Day
10h 32m
Waning Gibbous, 86% of the Moon is Illuminated
Oct 22
Waning Gibbous
Oct 26
Last Quarter
Nov 3
New
Nov 9
First Quarter
Nov 17
Full

Hourly Weather History & Observations

Time (CDT) Temp. Windchill Dew Point Humidity Pressure Visibility Wind Dir Wind Speed Gust Speed Precip Events Conditions
12:13 AM 37.4 °F 28.2 °F 32.0 °F 81% 29.88 in 10.0 mi WNW 16.1 mph - N/A   Mostly Cloudy
12:34 AM 37.4 °F 28.9 °F 32.0 °F 81% 29.89 in 10.0 mi NW 13.8 mph 19.6 mph N/A   Scattered Clouds
12:53 AM 37.4 °F 29.3 °F 32.0 °F 81% 29.89 in 10.0 mi WNW 12.7 mph 17.3 mph N/A   Clear
1:14 AM 37.4 °F 28.9 °F 32.0 °F 81% 29.89 in 10.0 mi WNW 13.8 mph 18.4 mph N/A   Clear
1:33 AM 37.4 °F 30.3 °F 32.0 °F 81% 29.90 in 10.0 mi West 10.4 mph - N/A   Clear
1:53 AM 37.4 °F 30.3 °F 32.0 °F 81% 29.90 in 10.0 mi West 10.4 mph - N/A   Clear
2:14 AM 37.4 °F 32.1 °F 32.0 °F 81% 29.91 in 10.0 mi WNW 6.9 mph - N/A   Clear
2:33 AM 37.4 °F 30.3 °F 32.0 °F 81% 29.91 in 10.0 mi WNW 10.4 mph - N/A   Clear
2:53 AM 37.4 °F 30.8 °F 32.0 °F 81% 29.91 in 10.0 mi WNW 9.2 mph - N/A   Clear
3:14 AM 37.4 °F 28.9 °F 32.0 °F 81% 29.91 in 10.0 mi NW 13.8 mph - N/A   Clear
3:33 AM 37.4 °F 29.8 °F 32.0 °F 81% 29.91 in 10.0 mi NW 11.5 mph - N/A   Clear
3:53 AM 37.4 °F 29.3 °F 32.0 °F 81% 29.91 in 10.0 mi NW 12.7 mph - N/A   Clear
4:14 AM 35.6 °F 29.9 °F 30.2 °F 81% 29.92 in 10.0 mi NW 6.9 mph - N/A   Clear
4:33 AM 37.4 °F 32.8 °F 30.2 °F 75% 29.92 in 10.0 mi NW 5.8 mph - N/A   Clear
4:53 AM 35.6 °F 31.7 °F 30.2 °F 81% 29.93 in 10.0 mi SSW 4.6 mph - N/A   Clear
5:14 AM 35.6 °F 31.7 °F 30.2 °F 81% 29.94 in 10.0 mi NW 4.6 mph - N/A   Clear
5:33 AM 35.6 °F 29.9 °F 30.2 °F 81% 29.94 in 10.0 mi NW 6.9 mph - N/A   Scattered Clouds
5:54 AM 35.6 °F 27.1 °F 28.4 °F 75% 29.93 in 10.0 mi NW 12.7 mph - N/A   Clear
6:14 AM 35.6 °F 29.9 °F 28.4 °F 75% 29.95 in 10.0 mi NW 6.9 mph - N/A   Scattered Clouds
6:33 AM 35.6 °F 29.9 °F 28.4 °F 75% 29.95 in 10.0 mi NW 6.9 mph - N/A   Mostly Cloudy
6:54 AM 35.6 °F 30.7 °F 28.4 °F 75% 29.96 in 10.0 mi NW 5.8 mph - N/A   Overcast
7:14 AM 35.6 °F 29.2 °F 28.4 °F 75% 29.96 in 10.0 mi NNW 8.1 mph - N/A   Overcast
7:33 AM 35.6 °F 29.2 °F 28.4 °F 75% 29.97 in 10.0 mi NNW 8.1 mph - N/A   Overcast
7:54 AM 35.6 °F 28.6 °F 28.4 °F 75% 29.97 in 10.0 mi NNW 9.2 mph 17.3 mph N/A   Overcast
8:13 AM 35.6 °F 29.2 °F 28.4 °F 75% 29.97 in 10.0 mi North 8.1 mph - N/A   Overcast
8:33 AM 35.6 °F 28.6 °F 30.2 °F 81% 29.98 in 10.0 mi North 9.2 mph - N/A   Overcast
8:54 AM 35.6 °F 28.0 °F 28.4 °F 75% 29.98 in 10.0 mi North 10.4 mph - N/A   Overcast
9:13 AM 37.4 °F 29.8 °F 28.4 °F 70% 29.98 in 10.0 mi North 11.5 mph - N/A   Overcast
9:33 AM 37.4 °F 30.8 °F 28.4 °F 70% 29.99 in 10.0 mi North 9.2 mph - N/A   Overcast
9:54 AM 35.6 °F 28.6 °F 26.6 °F 70% 29.99 in 10.0 mi NNW 9.2 mph 16.1 mph N/A   Overcast
10:13 AM 37.4 °F 30.8 °F 26.6 °F 65% 29.99 in 10.0 mi North 9.2 mph - N/A   Overcast
10:33 AM 37.4 °F 30.8 °F 26.6 °F 65% 30.00 in 10.0 mi NNW 9.2 mph - N/A   Overcast
10:53 AM 37.4 °F 31.4 °F 26.6 °F 65% 30.00 in 10.0 mi NNW 8.1 mph - N/A   Overcast
11:13 AM 37.4 °F 32.8 °F 24.8 °F 60% 30.00 in 10.0 mi NW 5.8 mph - N/A   Overcast
11:34 AM 37.4 °F 32.8 °F 26.6 °F 65% 30.00 in 10.0 mi NNW 5.8 mph - N/A   Overcast
11:53 AM 37.4 °F 32.8 °F 24.8 °F 60% 30.01 in 10.0 mi NW 5.8 mph - N/A   Overcast
12:13 PM 37.4 °F 32.1 °F 26.6 °F 65% 30.01 in 10.0 mi NNW 6.9 mph - N/A   Overcast
12:34 PM 37.4 °F 32.8 °F 26.6 °F 65% 30.00 in 10.0 mi North 5.8 mph 10.4 mph N/A   Overcast
12:53 PM 37.4 °F 30.8 °F 26.6 °F 65% 30.00 in 10.0 mi North 9.2 mph - N/A   Overcast
1:13 PM 37.4 °F 32.1 °F 26.6 °F 65% 30.00 in 10.0 mi North 6.9 mph - N/A   Overcast
1:33 PM 37.4 °F - 26.6 °F 65% 30.00 in 10.0 mi Calm Calm - N/A   Overcast
1:53 PM 37.4 °F 31.4 °F 26.6 °F 65% 29.99 in 10.0 mi NW 8.1 mph - N/A   Overcast
2:14 PM 37.4 °F 31.4 °F 26.6 °F 65% 29.99 in 10.0 mi NW 8.1 mph - N/A   Overcast
2:33 PM 37.4 °F 32.1 °F 26.6 °F 65% 29.99 in 10.0 mi NW 6.9 mph - N/A   Overcast
2:53 PM 37.4 °F 32.8 °F 24.8 °F 60% 30.00 in 10.0 mi NW 5.8 mph - N/A   Overcast
3:14 PM 37.4 °F 30.3 °F 24.8 °F 60% 30.00 in 10.0 mi NW 10.4 mph - N/A   Overcast
3:33 PM 39.2 °F 33.0 °F 24.8 °F 56% 30.00 in 10.0 mi NNW 9.2 mph - N/A   Overcast
3:53 PM 37.4 °F 32.1 °F 24.8 °F 60% 30.00 in 10.0 mi NW 6.9 mph - N/A   Overcast
4:13 PM 39.2 °F 34.2 °F 24.8 °F 56% 30.00 in 10.0 mi North 6.9 mph - N/A   Overcast
4:33 PM 39.2 °F 33.0 °F 24.8 °F 56% 30.01 in 10.0 mi NW 9.2 mph - N/A   Overcast
4:53 PM 39.2 °F 33.6 °F 24.8 °F 56% 30.01 in 10.0 mi NW 8.1 mph - N/A   Overcast
5:13 PM 37.4 °F 30.8 °F 26.6 °F 65% 30.01 in 10.0 mi WNW 9.2 mph - N/A   Overcast
5:34 PM 37.4 °F 32.8 °F 24.8 °F 60% 30.01 in 10.0 mi WNW 5.8 mph - N/A   Overcast
5:53 PM 39.2 °F 33.6 °F 24.8 °F 56% 30.01 in 10.0 mi NW 8.1 mph - N/A   Overcast
6:14 PM 39.2 °F 32.5 °F 24.8 °F 56% 30.01 in 10.0 mi WNW 10.4 mph - N/A   Overcast
6:33 PM 37.4 °F 32.1 °F 26.6 °F 65% 30.01 in 10.0 mi West 6.9 mph - N/A   Mostly Cloudy
6:53 PM 37.4 °F 32.8 °F 26.6 °F 65% 30.01 in 10.0 mi WSW 5.8 mph - N/A   Scattered Clouds
7:13 PM 37.4 °F 33.8 °F 26.6 °F 65% 30.01 in 10.0 mi West 4.6 mph - N/A   Clear
7:34 PM 35.6 °F 31.7 °F 26.6 °F 70% 30.00 in 10.0 mi WSW 4.6 mph - N/A   Clear
7:53 PM 35.6 °F 30.7 °F 26.6 °F 70% 30.00 in 10.0 mi WSW 5.8 mph - N/A   Clear
8:14 PM 35.6 °F 30.7 °F 26.6 °F 70% 30.00 in 10.0 mi WSW 5.8 mph - N/A   Clear
8:34 PM 33.8 °F 27.7 °F 28.4 °F 81% 30.00 in 10.0 mi West 6.9 mph - N/A   Clear
8:53 PM 35.6 °F 28.6 °F 26.6 °F 70% 30.00 in 10.0 mi West 9.2 mph - N/A   Mostly Cloudy
9:14 PM 35.6 °F 29.2 °F 26.6 °F 70% 30.00 in 10.0 mi WSW 8.1 mph - N/A   Scattered Clouds
9:34 PM 35.6 °F 29.9 °F 26.6 °F 70% 30.00 in 10.0 mi WSW 6.9 mph - N/A   Mostly Cloudy
9:53 PM 33.8 °F 28.6 °F 26.6 °F 75% 30.00 in 10.0 mi SW 5.8 mph - N/A   Overcast
10:14 PM 33.8 °F 28.6 °F 26.6 °F 75% 30.00 in 10.0 mi SSW 5.8 mph - N/A   Overcast
10:34 PM 33.8 °F 29.6 °F 26.6 °F 75% 30.00 in 10.0 mi SW 4.6 mph - N/A   Overcast
10:53 PM 33.8 °F 28.6 °F 26.6 °F 75% 29.99 in 10.0 mi SW 5.8 mph - N/A   Overcast
11:14 PM 33.8 °F 27.7 °F 26.6 °F 75% 29.99 in 10.0 mi SW 6.9 mph - N/A   Overcast
11:33 PM 33.8 °F 27.7 °F 26.6 °F 75% 29.99 in 10.0 mi SW 6.9 mph - N/A   Mostly Cloudy
11:53 PM 33.8 °F 27.0 °F 26.6 °F 75% 29.98 in 10.0 mi WSW 8.1 mph - N/A   Scattered Clouds